Location: Ferques
(50.8300°N, 1.7599°E)
Time: 07:27:31
(UTC+00:00)

USA-17 - Pass Details

Date: 19 May 2025
Orbit: 394 x 1604 km, 63.3° (Epoch: 18 June)

Event Time Altitude Azimuth Distance (km) Brightness Sun altitude
Rises 23:37:46 0° 316° (NW) 2,332 8.8 -19.1°
Reaches altitude 10° 23:39:48 10° 319° (NW) 1,447 7.7 -19.1°
Maximum altitude 23:42:52 72° 44° (NE) 429 4.3 -19.2°
Enters shadow 23:43:18 60° 102° (ESE) 474 4.3 -19.2°
